GCDDG EGHA-EGHH

Flight info

Callsign GCDDG
Flight time N/A
Altitude 3000
Route VFR
Aircraft C172/L-SFG/C

Departure

Time 2026-04-26 17:50
Airport Compton Abbas Aerodrome (EGHA)

Arrival

Time N/A
Airport Bournemouth Airport (EGHH)
Time Latitude Longitude Altitude Speed Heading
2026-04-26 17:48 50.96652 -2.15886 810 ft 0 kts 76°
2026-04-26 17:49 50.96654 -2.15872 810 ft 11 kts 75°
2026-04-26 17:49 50.96708 -2.15494 813 ft 56 kts 78°
2026-04-26 17:49 50.96849 -2.14779 938 ft 69 kts 69°
2026-04-26 17:50 50.97194 -2.14170 1062 ft 81 kts 45°
2026-04-26 17:50 50.97662 -2.13638 1189 ft 90 kts 27°
2026-04-26 17:50 50.98165 -2.14146 1199 ft 112 kts 267°
2026-04-26 17:50 50.98051 -2.15193 1538 ft 96 kts 253°
2026-04-26 17:51 50.97781 -2.16164 1670 ft 98 kts 232°
2026-04-26 17:51 50.97300 -2.16980 1793 ft 105 kts 226°
2026-04-26 17:51 50.96672 -2.17637 1793 ft 114 kts 201°
2026-04-26 17:51 50.95908 -2.18224 1745 ft 128 kts 203°
2026-04-26 17:52 50.95084 -2.18861 1717 ft 134 kts 202°
2026-04-26 17:52 50.94249 -2.19494 1727 ft 133 kts 202°
2026-04-26 17:52 50.93394 -2.20136 1551 ft 141 kts 204°
2026-04-26 17:52 50.92512 -2.20793 1443 ft 136 kts 203°
2026-04-26 17:53 50.91669 -2.21425 1418 ft 130 kts 202°
2026-04-26 17:53 50.90907 -2.22007 1653 ft 114 kts 202°
2026-04-26 17:53 50.90225 -2.22536 1922 ft 104 kts 202°
2026-04-26 17:54 50.88847 -2.22545 2213 ft 112 kts 162°
2026-04-26 17:54 50.88056 -2.22213 2217 ft 122 kts 162°
2026-04-26 17:54 50.87227 -2.21854 2215 ft 124 kts 162°
2026-04-26 17:54 50.86387 -2.21490 2216 ft 126 kts 162°
2026-04-26 17:55 50.85541 -2.21127 2213 ft 126 kts 162°
2026-04-26 17:55 50.84704 -2.20762 2204 ft 124 kts 162°
2026-04-26 17:55 50.83865 -2.20397 2210 ft 126 kts 162°
2026-04-26 17:55 50.83018 -2.20036 2205 ft 125 kts 162°
2026-04-26 17:56 50.82179 -2.19668 2210 ft 125 kts 162°
2026-04-26 17:56 50.80475 -2.18950 2215 ft 128 kts 162°
2026-04-26 17:57 50.78770 -2.18213 2204 ft 128 kts 162°
2026-04-26 17:57 50.77913 -2.17851 2207 ft 127 kts 163°
2026-04-26 17:57 50.77063 -2.17493 2206 ft 126 kts 162°
2026-04-26 17:57 50.76212 -2.17140 2204 ft 126 kts 162°
2026-04-26 17:58 50.73646 -2.16090 2200 ft 126 kts 161°
2026-04-26 17:59 50.71952 -2.15389 2205 ft 128 kts 162°
2026-04-26 17:59 50.71094 -2.15029 2211 ft 128 kts 161°
2026-04-26 17:59 50.70235 -2.14681 2213 ft 128 kts 162°
2026-04-26 17:59 50.69374 -2.14342 2212 ft 128 kts 163°
2026-04-26 18:00 50.68525 -2.13990 2210 ft 127 kts 162°
2026-04-26 18:00 50.67667 -2.13610 2164 ft 130 kts 155°
2026-04-26 18:00 50.66985 -2.12721 2117 ft 124 kts 121°
2026-04-26 18:00 50.66809 -2.11459 2191 ft 117 kts 87°
2026-04-26 18:01 50.66988 -2.10221 2186 ft 121 kts 73°
2026-04-26 18:01 50.67230 -2.08955 2217 ft 117 kts 76°
2026-04-26 18:01 50.67084 -2.07726 2209 ft 123 kts 128°
2026-04-26 18:01 50.66306 -2.07142 2207 ft 126 kts 156°
2026-04-26 18:02 50.65778 -2.06167 2199 ft 121 kts 99°
2026-04-26 18:02 50.65878 -2.05284 2195 ft 124 kts 68°
2026-04-26 18:02 50.66314 -2.03646 2208 ft 121 kts 84°
2026-04-26 18:02 50.65970 -2.02505 2213 ft 124 kts 143°
2026-04-26 18:03 50.65176 -2.01955 2212 ft 124 kts 155°
2026-04-26 18:03 50.64349 -2.01571 2209 ft 129 kts 179°
2026-04-26 18:03 50.63491 -2.02061 2213 ft 134 kts 202°
2026-04-26 18:03 50.62790 -2.02999 2215 ft 136 kts 236°
2026-04-26 18:04 50.62338 -2.04321 2214 ft 139 kts 250°
2026-04-26 18:04 50.62029 -2.05757 2205 ft 137 kts 249°
2026-04-26 18:04 50.61710 -2.07173 2205 ft 137 kts 249°
2026-04-26 18:05 50.61440 -2.10115 2206 ft 138 kts 269°
2026-04-26 18:05 50.61425 -2.11637 2200 ft 141 kts 270°
2026-04-26 18:05 50.61407 -2.13161 2206 ft 138 kts 269°
2026-04-26 18:05 50.61388 -2.14686 2204 ft 140 kts 269°
2026-04-26 18:06 50.61370 -2.16213 2207 ft 139 kts 269°
2026-04-26 18:06 50.61353 -2.17734 2207 ft 138 kts 269°
2026-04-26 18:06 50.61334 -2.19212 2203 ft 136 kts 269°
2026-04-26 18:06 50.61356 -2.20697 2203 ft 136 kts 275°
2026-04-26 18:07 50.61430 -2.22187 2203 ft 136 kts 276°
2026-04-26 18:07 50.61492 -2.23677 2206 ft 137 kts 275°
2026-04-26 18:07 50.61561 -2.25166 2205 ft 136 kts 275°
2026-04-26 18:07 50.61607 -2.26173 2208 ft 137 kts 275°
2026-04-26 18:08 50.61698 -2.28147 2206 ft 137 kts 275°
2026-04-26 18:08 50.61772 -2.29647 2201 ft 137 kts 275°
2026-04-26 18:08 50.61846 -2.31144 2208 ft 137 kts 275°
2026-04-26 18:08 50.61915 -2.32645 2208 ft 137 kts 275°
2026-04-26 18:09 50.61988 -2.34146 2209 ft 138 kts 275°
2026-04-26 18:09 50.62061 -2.35638 2205 ft 137 kts 275°
2026-04-26 18:09 50.62132 -2.37134 2210 ft 138 kts 275°
2026-04-26 18:09 50.62206 -2.38642 2207 ft 137 kts 275°
2026-04-26 18:10 50.62278 -2.40150 2211 ft 138 kts 275°
2026-04-26 18:10 50.62354 -2.41657 2203 ft 137 kts 275°
2026-04-26 18:10 50.62421 -2.43155 2203 ft 137 kts 275°
2026-04-26 18:10 50.62682 -2.44551 2210 ft 135 kts 313°
2026-04-26 18:11 50.63502 -2.45062 2214 ft 127 kts 12°
2026-04-26 18:11 50.64149 -2.44287 2216 ft 120 kts 64°
2026-04-26 18:11 50.64396 -2.43031 2212 ft 122 kts 81°
2026-04-26 18:11 50.64566 -2.41708 2213 ft 124 kts 81°
2026-04-26 18:12 50.64732 -2.40391 2214 ft 124 kts 80°
2026-04-26 18:12 50.64900 -2.39074 2209 ft 121 kts 81°
2026-04-26 18:12 50.65070 -2.37775 2211 ft 121 kts 80°
2026-04-26 18:12 50.65233 -2.36463 2206 ft 122 kts 81°
2026-04-26 18:13 50.65399 -2.35161 2210 ft 121 kts 80°
2026-04-26 18:13 50.65535 -2.33847 2210 ft 121 kts 85°
2026-04-26 18:13 50.65619 -2.32518 2209 ft 124 kts 85°
2026-04-26 18:13 50.65678 -2.31622 2204 ft 123 kts 85°
2026-04-26 18:14 50.65789 -2.29834 2213 ft 123 kts 85°
2026-04-26 18:14 50.65869 -2.28492 2205 ft 122 kts 85°
2026-04-26 18:14 50.65955 -2.27165 2208 ft 122 kts 85°
2026-04-26 18:14 50.66039 -2.25829 2208 ft 123 kts 85°
2026-04-26 18:15 50.66127 -2.24497 2212 ft 122 kts 85°
2026-04-26 18:15 50.66215 -2.23157 2208 ft 122 kts 85°
2026-04-26 18:15 50.66303 -2.21830 2210 ft 122 kts 85°
2026-04-26 18:15 50.66396 -2.20489 2210 ft 124 kts 85°
2026-04-26 18:16 50.66486 -2.19149 2207 ft 122 kts 85°
2026-04-26 18:16 50.66664 -2.16519 2203 ft 120 kts 85°
2026-04-26 18:16 50.66752 -2.15219 2204 ft 120 kts 85°
2026-04-26 18:17 50.66840 -2.13909 2199 ft 121 kts 85°
2026-04-26 18:17 50.66935 -2.12596 2201 ft 120 kts 85°
2026-04-26 18:17 50.67022 -2.11290 2199 ft 120 kts 85°
2026-04-26 18:17 50.67103 -2.09965 2207 ft 121 kts 85°
2026-04-26 18:18 50.67186 -2.08669 2207 ft 121 kts 85°
2026-04-26 18:18 50.67268 -2.07324 2197 ft 122 kts 86°
2026-04-26 18:18 50.67354 -2.06011 2203 ft 120 kts 85°
2026-04-26 18:18 50.67432 -2.04709 2204 ft 121 kts 85°
2026-04-26 18:19 50.67511 -2.03386 2206 ft 121 kts 85°
2026-04-26 18:19 50.67708 -2.02113 2190 ft 123 kts 55°